Retour au catalogue

TITAN 3C TRANSTAGE DEB

ActifHEO
NORAD 36983·DEBRIS·🇺🇸 United States

Lancé Dec 21, 1965 depuis Cape Canaveral Space Force Station

Loading…

Prochains Passages (prochaines 24 heures)

TLE

FraisSource: Space-Track

Époque: Sep 9, 2026, 12:30 UTC

1 36983U 65108DP  26252.52115485  .00105660  00000-0  14741-2 0  9994
2 36983  27.0678 314.0985 4296237 256.8339  53.1238  7.00653146607041

Suivez TITAN 3C TRANSTAGE DEB en temps réel avec AllMySat

Download on the App Store